Список аэропортов
Фактическая погода:

01 марта, 22:30
Температура: +13°C (+10.2*)
Ветер: западный 10 м/с
Давление: *760 мм
Без существ. явл.
Время (МСК)Темп. СВетерВлажностьДавлениеОблачностьОсадки
21:00+14ЮЗ, 8 м/с45%1016 гПаоблачно
22:00+13З, 9 м/с51%1016 гПаоблачно
23:00+13З, 8 м/с55%1017 гПас прояснениями
02 марта
00:00+13ЮЗ, 7 м/с58%1017 гПас прояснениями
01:00+13ЮЗ, 7 м/с60%1017 гПамалооблачно
02:00+13ЮЗ, 7 м/с62%1017 гПамалооблачно
03:00+12ЮЗ, 8 м/с65%1017 гПамалооблачно
04:00+13ЮЗ, 8 м/с64%1016 гПаясно
05:00+13ЮЗ, 8 м/с63%1016 гПаясно
06:00+13ЮЗ, 8 м/с64%1016 гПаясно
07:00+12ЮЗ, 9 м/с68%1016 гПаясно
08:00+12ЮЗ, 9 м/с70%1016 гПаясно
09:00+12ЮЗ, 8 м/с73%1017 гПаясно
10:00+12З, 7 м/с74%1017 гПаясно
11:00+13З, 7 м/с67%1017 гПаясно
12:00+14ЮЗ, 7 м/с59%1017 гПаясно
13:00+16ЮЗ, 8 м/с56%1016 гПамалооблачно
14:00+17З, 8 м/с50%1016 гПас прояснениями
15:00+17З, 9 м/с47%1016 гПаоблачно
16:00+17З, 9 м/с49%1015 гПаоблачно
17:00+17З, 10 м/с48%1014 гПаоблачно
18:00+17З, 10 м/с48%1014 гПаоблачно
19:00+17З, 9 м/с49%1014 гПаоблачно
20:00+17З, 8 м/с50%1015 гПаясно
21:00+16З, 8 м/с52%1015 гПаясно
22:00+16З, 8 м/с53%1016 гПаясно
23:00+15З, 6 м/с52%1016 гПас прояснениями
03 марта
00:00+14СВ, 2 м/с56%1017 гПамалооблачно
01:00+13СВ, 6 м/с81%1018 гПамалооблачно
02:00+13СВ, 4 м/с84%1018 гПамалооблачно
03:00+12СВ, 2 м/с81%1018 гПамалооблачно
04:00+12СВ, 1 м/с81%1018 гПамалооблачно
05:00+12Штиль 86%1018 гПаоблачно
06:00+12СЗ, 1 м/с81%1017 гПаоблачно
07:00+12СЗ, 1 м/с77%1017 гПас прояснениями
08:00+12СЗ, 2 м/с76%1018 гПаоблачно
09:00+12СЗ, 2 м/с74%1018 гПаоблачно
10:00+12С, 3 м/с72%1018 гПас прояснениями
11:00+13С, 2 м/с68%1017 гПаясно
12:00+14Штиль 70%1017 гПаясно
13:00+14ЮВ, 2 м/с74%1016 гПаоблачно
14:00+14ЮВ, 2 м/с77%1015 гПаоблачно
15:00+14В, 3 м/с80%1015 гПамалооблачно
16:00+14В, 4 м/с84%1015 гПамалооблачно
17:00+14В, 5 м/с85%1014 гПамалооблачно
18:00+13В, 6 м/с86%1013 гПаоблачно
19:00+13В, 6 м/с88%1013 гПаоблачно
20:00+13В, 6 м/с88%1013 гПас прояснениями
21:00+13В, 6 м/с86%1013 гПас прояснениями